Wetbulb
66.45 66.45 64.42 63.38 65.64 65.81 65.18 64.60 63.91 65.10 62.81 61.62 60.65 60.25 59.55 58.74 58.36 58.28 57.98 61.51 61.74 61.43 61.19 61.05 60.68 59.98 59.60 59.06 58.66 58.45 58.24 58.10 57.93 57.63 57.08 56.73 56.48 56.31 56.28 55.80 55.48 55.58 55.27
66.32 66.29 64.99 63.07 64.87 65.57 64.52 64.54 64.11 64.28 62.60 61.36 60.39 60.64 59.61 58.39 57.74 56.60 57.18 57.41 60.49 61.37 61.04 60.68 60.33 59.96 59.65 59.01 58.48 58.24 58.07 57.65 57.30 57.20 56.61 56.34 55.97 55.62 55.33 55.18 54.85 54.79 54.68
66.15 65.37 65.03 63.77 63.24 65.09 63.86 63.71 64.97 64.66 62.72 61.90 60.47 60.10 59.24 58.01 57.03 56.25 55.80 55.53 57.17 60.25 60.49 60.93 59.96 59.68 59.35 59.16 58.27 57.93 57.47 57.26 56.91 56.67 56.26 55.83 55.50 55.14 55.00 54.57 54.24 54.24 53.83
66.10 64.91 64.93 64.45 64.43 63.76 63.86 63.65 64.59 63.26 61.76 60.51 59.74 59.34 59.18 57.73 56.57 55.89 55.28 54.85 55.27 56.17 59.07 59.96 60.35 59.77 58.92 58.74 58.66 58.09 57.52 57.11 56.57 56.43 55.97 55.58 55.25 55.11 54.57 54.18 53.83 53.50 53.11
66.26 64.91 64.43 63.66 63.12 63.07 63.37 63.94 64.15 62.99 61.50 60.48 59.80 59.41 58.85 57.42 56.69 56.61 54.89 54.72 54.83 54.65 54.91 59.22 59.27 59.24 59.20 58.43 58.38 58.24 57.74 57.11 56.66 56.18 55.87 55.33 54.90 54.55 54.20 53.46 53.31 52.84 52.43
65.65 64.75 63.64 61.97 63.50 63.25 62.86 63.90 63.78 63.18 61.47 60.40 59.74 58.60 58.40 58.17 56.86 55.15 54.60 55.12 54.14 54.07 54.04 54.81 55.25 55.18 58.22 58.42 57.99 58.03 58.14 57.49 57.09 56.53 55.92 55.40 54.84 54.32 53.95 53.11 52.72 52.27 51.80
65.25 63.30 63.48 62.28 63.83 62.85 62.82 63.40 63.97 62.54 61.21 59.00 57.06 56.18 55.76 57.08 57.02 55.66 54.57 53.96 53.63 53.32 53.23 53.27 52.89 52.36 54.56 58.26 57.85 57.95 58.36 58.19 57.40 56.84 55.89 55.31 54.47 54.22 53.79 53.13 52.43 51.93 51.36
63.14 61.04 58.98 62.44 64.26 63.20 63.67 63.22 62.80 61.80 59.33 59.88 57.97 56.02 53.38 55.04 56.12 55.98 56.71 54.36 52.69 52.63 52.57 52.67 52.11 51.62 51.76 52.89 53.56 57.77 58.14 58.19 57.57 57.02 55.93 55.09 54.49 53.97 53.54 53.13 52.48 51.97 51.20
62.80 60.56 58.33 62.54 64.44 64.15 63.37 63.73 63.05 61.05 58.68 60.08 59.47 56.49 53.19 53.12 54.61 55.47 55.82 53.90 52.43 51.35 52.12 52.23 51.56 51.24 50.65 50.94 53.71 55.47 57.15 57.39 57.64 57.23 56.33 55.23 54.45 53.93 53.58 53.01 52.56 51.97 51.14
63.81 63.50 62.27 62.24 64.13 64.45 63.75 64.11 63.78 61.61 60.13 58.30 59.06 59.08 55.86 53.55 52.56 51.94 53.34 54.05 51.98 51.53 50.86 50.75 50.78 50.53 50.35 49.55 52.25 53.46 53.97 54.51 56.49 57.45 56.83 55.83 54.75 54.09 53.64 53.27 52.76 52.15 51.56
63.39 61.90 61.91 60.21 61.46 63.29 63.46 63.40 63.10 61.93 60.73 59.82 58.74 57.80 56.10 53.72 53.35 51.96 51.51 50.55 51.00 51.72 51.25 50.83 50.70 50.00 49.51 49.27 48.53 50.69 52.89 52.52 53.50 56.83 56.89 56.27 55.21 54.34 53.89 53.46 52.94 52.52 51.88
62.17 61.37 60.62 60.01 60.76 61.37 62.59 63.43 62.77 61.35 60.96 60.73 59.64 58.90 56.98 55.38 53.84 51.20 49.12 48.76 52.25 51.14 52.03 51.56 50.30 50.02 49.26 48.54 49.81 51.10 51.48 50.71 51.70 54.33 56.17 56.44 55.53 54.67 53.99 53.91 53.52 52.72 52.14
61.04 60.65 60.15 59.47 60.07 61.35 61.15 62.81 63.12 61.53 61.23 60.55 59.62 59.04 59.87 58.55 56.04 54.32 51.93 49.06 50.69 50.97 50.68 52.47 52.23 51.41 50.74 48.57 48.63 50.89 51.13 49.49 49.91 51.97 53.96 55.03 55.14 54.99 54.16 53.60 53.50 53.27 52.64
61.68 61.40 60.90 60.16 60.59 61.94 61.77 62.66 63.04 62.42 61.55 60.96 60.19 59.89 59.60 59.57 57.07 55.17 53.54 50.25 49.06 49.03 49.46 51.18 52.74 52.26 51.42 49.81 49.62 50.56 48.92 48.82 48.75 49.47 51.09 52.53 53.42 53.76 53.38 53.36 53.35 52.88 52.45
63.14 62.09 60.98 60.66 60.68 62.09 62.75 61.99 62.22 62.48 61.87 61.05 60.48 60.09 59.62 59.93 60.03 56.45 55.17 53.58 52.71 48.32 49.56 51.21 51.07 52.76 53.05 50.93 49.40 48.82 48.47 49.34 48.16 47.73 48.35 49.52 51.16 52.03 51.92 51.98 52.05 52.17 51.96
63.49 62.89 61.05 60.74 60.59 60.79 62.54 62.87 62.33 62.86 61.42 60.85 60.48 59.96 59.96 60.44 60.29 60.20 55.51 54.29 53.40 52.84 50.55 53.59 52.14 50.61 53.00 51.99 50.37 48.76 48.37 48.87 47.84 46.56 46.45 47.10 48.35 49.90 50.39 50.28 50.19 50.31 50.45
63.32 63.14 62.20 60.58 59.85 60.18 61.83 62.02 62.17 62.15 61.40 60.26 60.18 59.98 59.69 60.46 60.42 60.47 57.63 55.48 53.02 53.07 52.12 52.88 52.80 51.16 50.68 51.00 49.78 49.59 49.20 47.81 47.68 46.73 45.84 45.58 45.88 46.68 47.29 47.64 47.85 48.11 48.35
63.33 63.10 62.63 61.52 60.46 61.06 61.94 62.12 60.82 60.96 61.33 60.73 60.28 59.89 59.53 60.16 59.83 60.66 58.87 56.80 55.79 53.39 53.83 53.89 51.44 50.09 50.34 50.17 49.53 48.44 48.68 48.80 47.55 46.96 45.98 45.20 44.87 44.45 44.59 44.72 45.04 45.16 45.44
62.59 62.85 62.38 61.68 61.48 61.29 61.29 62.05 62.51 61.59 61.49 61.35 60.86 60.60 60.31 60.03 59.47 59.88 59.03 57.73 55.78 54.79 54.26 52.27 52.68 50.35 50.56 49.30 47.77 47.54 46.54 45.99 46.34 47.53 45.31 44.43 44.21 44.00 43.49 43.16 43.60 43.58 43.57
62.85 62.42 62.26 61.78 61.43 61.31 61.44 61.20 61.68 62.38 62.46 61.88 61.79 61.78 61.45 60.95 60.30 60.18 59.05 58.06 56.83 55.23 54.77 53.74 50.43 48.54 49.00 48.78 47.60 46.35 44.78 45.63 45.28 47.20 45.56 44.10 43.70 43.51 43.19 42.73 42.57 42.78 42.56
56.54 62.66 61.88 61.94 61.75 61.14 60.73 60.64 60.88 61.74 62.20 62.13 62.33 62.16 62.22 60.46 55.86 58.17 60.58 59.36 57.74 55.25 53.87 53.66 50.74 48.23 48.15 47.31 47.36 48.36 48.55 46.08 45.71 47.15 45.80 44.49 43.54 42.31 41.43 42.70 42.58 42.50 41.78
49.85 58.60 61.87 61.13 60.88 61.51 54.16 49.80 56.60 60.40 61.59 61.87 61.75 62.25 62.37 54.82 53.82 49.61 50.03 50.86 56.24 56.83 54.77 54.08 53.67 51.96 52.76 48.64 47.67 47.24 46.42 45.64 44.50 47.44 44.61 45.02 43.99 43.08 43.51 41.46 42.24 41.10 41.08
45.60 49.30 59.70 61.77 60.83 60.79 49.81 47.46 47.33 60.23 60.82 61.31 61.88 62.14 61.60 61.39 54.33 58.37 48.15 47.13 47.46 47.33 52.10 56.13 55.48 54.16 54.83 52.72 49.28 47.69 48.00 48.03 47.60 48.01 47.40 44.77 42.66 43.97 44.44 43.66 41.61 40.84 40.43
41.70 46.63 52.09 61.34 61.38 61.26 48.06 46.74 45.24 58.53 60.12 60.88 61.42 62.01 61.86 61.39 59.38 59.70 59.32 56.68 56.12 53.68 52.19 52.89 57.23 57.82 56.26 55.21 53.79 53.13 51.67 50.77 47.79 46.78 46.92 43.77 40.24 42.02 43.39 43.03 41.42 41.39 40.80
39.75 43.72 49.96 58.64 60.62 61.14 48.40 45.68 46.70 57.10 58.62 59.18 60.34 60.87 61.35 61.39 54.20 49.31 59.18 58.73 57.66 56.54 45.79 44.64 43.93 43.87 47.13 46.59 50.66 52.48 49.20 47.31 43.86 43.33 43.36 43.21 40.60 39.21 39.31 40.49 40.94 40.22 40.42
39.06 42.79 47.33 53.87 54.44 58.92 47.13 45.14 47.59 58.33 58.24 58.53 58.93 58.96 48.04 57.90 48.36 44.59 58.64 59.37 58.14 57.73 49.95 45.97 47.02 47.42 47.64 49.41 45.86 54.09 52.41 49.13 43.03 38.75 42.99 42.54 38.71 40.03 37.32 36.06 38.00 38.53 36.96
MSLP
1014.02 1014.51 1015.17 1015.60 1015.95 1016.07 1016.66 1017.06 1017.51 1018.05 1018.92 1019.48 1020.24 1020.50 1021.35 1021.72 1022.04 1022.36 1022.69 1022.89 1023.02 1023.20 1023.41 1023.71 1024.02 1024.30 1024.59 1024.85 1025.13 1025.35 1025.53 1025.72 1025.90 1026.12 1026.31 1026.51 1026.73 1026.84 1026.96 1027.07 1027.15 1027.21 1027.34
1013.76 1014.24 1015.05 1015.63 1015.92 1016.30 1016.82 1017.01 1017.44 1018.23 1019.00 1019.53 1020.37 1020.82 1021.40 1021.86 1022.26 1022.64 1022.97 1023.06 1023.18 1023.39 1023.65 1023.90 1024.21 1024.49 1024.77 1025.10 1025.38 1025.60 1025.76 1025.94 1026.16 1026.38 1026.61 1026.77 1026.99 1027.16 1027.31 1027.42 1027.48 1027.51 1027.69
1013.26 1013.91 1014.28 1015.41 1016.00 1016.54 1017.07 1017.34 1017.65 1018.24 1019.01 1019.72 1020.46 1020.99 1021.59 1021.98 1022.48 1022.87 1023.17 1023.27 1023.37 1023.61 1023.85 1024.15 1024.42 1024.70 1024.99 1025.30 1025.59 1025.83 1026.00 1026.22 1026.37 1026.59 1026.86 1027.02 1027.18 1027.28 1027.48 1027.67 1027.77 1027.84 1027.98
1013.07 1013.53 1014.52 1014.70 1015.41 1016.31 1016.83 1017.41 1017.64 1018.52 1019.09 1019.95 1020.63 1021.28 1021.73 1022.01 1022.59 1023.01 1023.32 1023.46 1023.61 1023.77 1023.95 1024.30 1024.61 1024.87 1025.19 1025.45 1025.73 1025.98 1026.21 1026.42 1026.61 1026.81 1027.02 1027.21 1027.34 1027.48 1027.65 1027.78 1027.95 1028.15 1028.29
1012.79 1013.58 1014.23 1014.53 1015.19 1016.35 1017.12 1017.49 1017.87 1018.25 1019.08 1020.14 1020.79 1021.45 1021.78 1022.05 1022.64 1023.01 1023.40 1023.64 1023.73 1023.90 1024.19 1024.37 1024.68 1025.00 1025.30 1025.49 1025.74 1026.02 1026.28 1026.53 1026.73 1026.91 1027.11 1027.32 1027.53 1027.69 1027.86 1028.04 1028.19 1028.35 1028.49
1012.68 1012.93 1014.21 1015.19 1015.63 1016.44 1016.97 1017.26 1017.89 1018.51 1019.17 1019.87 1020.79 1021.65 1021.95 1022.06 1022.72 1023.17 1023.45 1023.67 1023.84 1023.96 1024.24 1024.48 1024.80 1025.09 1025.31 1025.53 1025.70 1025.94 1026.22 1026.50 1026.73 1026.90 1027.11 1027.35 1027.55 1027.77 1027.93 1028.09 1028.31 1028.42 1028.53
1012.26 1013.46 1013.71 1014.74 1015.31 1016.02 1016.63 1017.17 1017.87 1018.50 1019.43 1020.04 1020.93 1021.94 1022.38 1022.48 1022.78 1023.12 1023.40 1023.70 1023.88 1024.00 1024.26 1024.48 1024.80 1025.12 1025.31 1025.53 1025.68 1025.80 1025.98 1026.26 1026.55 1026.81 1027.05 1027.25 1027.50 1027.68 1027.98 1028.09 1028.20 1028.42 1028.55
1012.55 1013.13 1013.31 1014.44 1015.18 1015.80 1016.41 1016.93 1017.41 1018.30 1019.28 1019.72 1020.23 1021.30 1022.28 1022.91 1022.98 1022.95 1022.99 1023.46 1023.72 1023.88 1024.17 1024.44 1024.72 1025.05 1025.29 1025.53 1025.71 1025.71 1025.75 1025.96 1026.24 1026.57 1026.93 1027.16 1027.40 1027.66 1027.85 1028.03 1028.18 1028.27 1028.47
1012.00 1012.85 1013.20 1013.48 1014.44 1014.89 1015.75 1016.39 1016.97 1017.62 1018.50 1019.47 1019.61 1019.93 1021.27 1021.97 1022.48 1022.71 1022.81 1023.09 1023.53 1023.83 1023.81 1024.09 1024.49 1024.81 1025.15 1025.38 1025.54 1025.66 1025.67 1025.79 1025.94 1026.17 1026.56 1026.86 1027.14 1027.39 1027.60 1027.85 1028.05 1028.27 1028.45
1011.55 1012.18 1012.84 1013.19 1013.99 1014.33 1015.28 1015.97 1016.58 1017.12 1017.90 1018.77 1019.52 1019.33 1019.41 1020.56 1021.69 1022.56 1022.63 1022.67 1022.99 1023.29 1023.51 1023.83 1024.09 1024.44 1024.79 1025.14 1025.27 1025.40 1025.56 1025.67 1025.73 1025.81 1026.08 1026.44 1026.76 1027.02 1027.30 1027.53 1027.77 1028.00 1028.18
1010.66 1011.52 1012.29 1013.09 1013.70 1013.71 1014.82 1015.69 1016.25 1016.90 1017.32 1017.85 1018.45 1018.80 1019.52 1020.31 1020.67 1021.37 1022.09 1022.36 1022.79 1022.68 1022.85 1023.25 1023.51 1023.90 1024.23 1024.59 1024.89 1025.04 1025.19 1025.41 1025.56 1025.61 1025.77 1026.04 1026.35 1026.64 1026.85 1027.08 1027.29 1027.51 1027.75
1010.36 1011.15 1011.76 1012.67 1013.23 1013.58 1013.97 1015.35 1015.91 1016.49 1017.03 1017.21 1017.67 1017.93 1018.36 1019.26 1019.89 1020.60 1021.44 1021.72 1021.78 1022.15 1022.25 1022.59 1023.02 1023.24 1023.53 1023.90 1024.14 1024.38 1024.63 1024.97 1025.21 1025.29 1025.41 1025.66 1025.89 1026.18 1026.50 1026.70 1026.93 1027.10 1027.34
1009.72 1010.18 1011.03 1011.85 1012.63 1012.98 1013.67 1014.82 1015.30 1015.66 1016.25 1016.75 1017.01 1017.37 1017.74 1018.11 1018.61 1019.50 1020.28 1021.03 1021.30 1021.56 1021.89 1021.93 1021.99 1022.32 1022.58 1022.98 1023.27 1023.59 1023.94 1024.27 1024.63 1024.82 1024.97 1025.23 1025.49 1025.74 1025.94 1026.14 1026.47 1026.71 1026.95
1008.61 1009.35 1010.04 1011.01 1011.92 1012.58 1013.46 1014.39 1014.89 1015.05 1015.54 1016.02 1016.36 1016.91 1017.22 1017.52 1017.99 1018.44 1019.20 1020.04 1020.79 1021.27 1021.44 1020.95 1021.09 1021.24 1021.55 1021.82 1022.11 1022.63 1023.12 1023.45 1023.90 1024.28 1024.61 1024.78 1025.03 1025.31 1025.61 1025.82 1026.07 1026.36 1026.53
1008.14 1008.68 1009.53 1010.16 1010.90 1012.03 1012.61 1013.31 1013.99 1014.34 1014.75 1015.25 1015.77 1016.61 1016.81 1017.02 1017.52 1017.91 1018.12 1018.70 1019.14 1020.41 1020.59 1020.10 1020.43 1020.01 1020.39 1020.96 1021.32 1021.96 1022.40 1022.61 1023.13 1023.65 1024.06 1024.32 1024.59 1024.70 1024.85 1025.23 1025.54 1025.88 1026.11
1007.48 1008.11 1008.65 1009.30 1010.06 1010.86 1011.67 1012.39 1012.97 1013.75 1014.02 1014.59 1015.26 1015.87 1016.18 1016.47 1016.76 1017.33 1017.45 1017.86 1018.41 1018.76 1019.52 1019.18 1019.17 1019.43 1019.71 1020.09 1020.50 1021.07 1021.48 1021.75 1022.13 1022.67 1023.14 1023.60 1023.84 1024.20 1024.55 1024.67 1024.88 1025.33 1025.63
1006.76 1007.30 1007.87 1008.41 1009.00 1009.68 1010.36 1011.20 1011.92 1012.62 1013.05 1013.61 1014.40 1015.06 1015.46 1015.70 1016.12 1016.55 1016.88 1017.28 1017.91 1018.14 1018.67 1018.56 1018.61 1018.96 1019.44 1019.67 1020.05 1020.49 1020.88 1021.18 1021.39 1021.79 1022.21 1022.74 1023.18 1023.55 1023.79 1024.40 1024.52 1024.66 1025.00
1006.15 1006.60 1007.09 1007.12 1008.08 1008.64 1009.10 1009.89 1010.88 1011.58 1011.96 1012.49 1013.62 1014.23 1014.56 1014.80 1015.34 1015.50 1015.85 1016.54 1017.20 1017.40 1017.87 1018.24 1018.36 1018.65 1018.87 1019.19 1019.51 1020.15 1020.33 1020.50 1020.81 1021.12 1021.62 1022.09 1022.49 1022.89 1023.15 1023.58 1024.03 1024.29 1024.37
1005.34 1005.75 1006.39 1006.70 1006.94 1007.74 1008.26 1008.67 1009.48 1010.24 1010.77 1011.31 1012.21 1012.95 1013.25 1013.84 1014.43 1014.70 1015.26 1015.85 1016.37 1016.78 1017.05 1017.59 1017.79 1018.20 1018.50 1018.85 1019.53 1019.75 1019.96 1020.29 1020.36 1020.49 1020.96 1021.40 1021.82 1022.01 1022.57 1022.84 1023.33 1023.72 1023.89
1004.76 1004.96 1005.33 1005.88 1006.25 1006.90 1007.45 1007.99 1008.39 1009.23 1009.88 1010.36 1011.09 1011.78 1012.20 1012.83 1013.15 1013.48 1014.37 1014.61 1015.34 1015.98 1016.60 1017.05 1017.55 1017.88 1018.22 1018.55 1018.81 1019.26 1019.74 1019.73 1019.97 1020.01 1020.34 1020.67 1021.20 1021.54 1021.90 1022.29 1022.69 1022.98 1023.33
1005.14 1004.11 1004.65 1005.01 1005.47 1005.68 1006.42 1007.00 1007.46 1007.89 1008.57 1009.16 1009.75 1010.32 1010.89 1011.37 1011.90 1012.20 1012.89 1013.79 1014.56 1015.10 1015.85 1016.43 1017.10 1017.42 1017.65 1018.01 1018.07 1018.12 1018.67 1019.10 1019.50 1019.59 1019.95 1020.19 1020.53 1020.98 1021.32 1021.60 1021.87 1022.13 1022.37
1005.93 1004.34 1003.81 1004.32 1004.41 1004.63 1004.93 1005.70 1006.14 1006.73 1007.16 1007.73 1008.44 1009.14 1009.62 1010.23 1010.84 1011.32 1011.73 1012.28 1013.06 1013.79 1014.57 1015.14 1015.64 1016.13 1015.97 1016.32 1016.70 1017.11 1017.78 1018.75 1019.27 1018.53 1019.27 1019.51 1019.71 1019.89 1019.75 1020.12 1020.48 1020.83 1021.35
1006.17 1004.82 1003.23 1002.74 1003.77 1003.77 1004.11 1004.16 1005.29 1005.55 1005.62 1006.01 1006.77 1007.54 1008.37 1008.87 1009.55 1010.40 1011.15 1011.48 1011.97 1012.37 1012.53 1013.37 1014.06 1014.26 1014.51 1014.87 1015.88 1016.42 1016.82 1017.15 1017.22 1017.56 1018.39 1018.85 1019.19 1019.29 1019.20 1019.02 1019.64 1020.28 1020.65
1006.79 1005.44 1003.86 1002.99 1002.52 1002.87 1003.28 1003.77 1004.04 1004.53 1005.38 1005.10 1005.44 1006.09 1006.91 1007.60 1008.27 1009.29 1010.21 1011.02 1011.62 1011.94 1012.29 1012.24 1012.48 1012.68 1013.18 1013.57 1014.23 1014.54 1015.45 1016.42 1017.00 1017.25 1017.58 1018.50 1018.65 1018.86 1018.77 1018.86 1019.21 1019.78 1020.31
1006.99 1005.52 1004.04 1002.65 1001.84 1002.03 1002.38 1003.09 1003.73 1004.28 1004.72 1004.67 1004.69 1004.96 1005.72 1006.42 1007.23 1008.23 1009.19 1009.88 1010.50 1010.92 1011.57 1011.86 1012.11 1012.23 1012.48 1013.20 1013.81 1014.65 1015.31 1016.25 1016.83 1017.22 1017.49 1017.91 1018.62 1018.96 1018.94 1019.10 1019.14 1019.30 1019.74
1007.44 1006.10 1004.20 1002.59 1002.15 1001.91 1001.41 1002.31 1003.20 1002.86 1003.30 1003.49 1004.20 1004.56 1004.98 1005.37 1006.16 1007.20 1007.86 1008.46 1008.90 1009.57 1010.86 1011.71 1012.09 1012.19 1012.26 1012.73 1013.37 1013.38 1014.12 1014.99 1015.70 1016.71 1016.76 1017.32 1018.19 1018.67 1019.20 1019.25 1019.29 1019.10 1019.40
Wind_Speed
8 7 5 3 2 4 7 7 8 9 10 11 8 11 8 6 6 3 3 11 11 12 13 13 13 13 13 12 12 12 12 12 12 11 11 11 11 10 11 11 11 11 11
8 8 9 9 4 3 3 7 7 9 9 10 9 9 9 6 6 6 4 5 10 10 11 12 12 12 12 12 11 11 11 11 11 11 11 11 10 10 10 10 10 10 9
9 8 8 10 9 4 5 5 7 8 9 7 9 9 7 7 5 6 4 3 5 8 9 9 11 11 11 11 11 11 10 10 10 10 10 10 10 10 9 9 8 8 8
10 9 4 9 11 7 4 5 7 8 9 8 7 6 6 7 6 6 4 4 4 3 6 10 8 10 10 11 11 11 11 11 10 10 10 10 9 9 9 9 8 7 7
11 8 5 5 13 10 8 7 6 9 9 7 7 6 5 6 6 5 5 5 5 5 4 8 9 8 9 11 11 11 11 11 11 11 10 10 9 9 8 8 7 7 6
12 10 7 7 8 9 7 7 9 7 9 9 8 5 4 5 4 4 4 4 4 5 5 5 5 5 9 10 11 12 12 12 11 11 11 10 10 9 9 8 7 6 5
13 9 8 7 8 9 9 10 8 11 6 8 8 5 4 3 4 4 4 4 4 5 5 5 4 3 4 9 12 13 13 13 12 12 11 11 10 10 9 9 8 7 6
14 11 6 8 11 9 10 11 12 7 3 9 6 4 3 1 2 4 5 6 6 4 5 5 5 5 5 4 6 13 14 14 14 13 12 12 12 11 10 10 9 8 7
16 17 17 12 12 12 10 12 12 12 8 7 11 5 4 4 3 3 6 6 6 5 5 5 6 6 6 5 7 8 11 11 14 14 14 13 13 12 12 11 10 9 8
14 17 19 10 13 10 11 11 11 12 9 10 6 1 3 6 4 2 3 4 5 8 7 5 6 6 7 5 10 11 10 11 12 16 16 15 15 14 13 12 12 11 10
15 13 13 9 7 10 9 10 10 12 11 11 9 4 2 2 2 3 3 4 2 5 6 7 7 7 8 7 6 9 13 12 13 14 16 16 16 15 15 14 13 13 12
13 17 15 13 7 9 10 9 12 12 11 10 10 10 5 5 4 4 2 2 5 4 6 6 7 7 7 8 11 16 15 14 14 14 15 16 16 16 16 15 15 14 13
11 17 17 15 11 11 13 13 13 13 13 11 12 8 7 5 4 4 3 3 3 3 3 6 8 8 8 8 10 17 18 16 16 16 16 16 16 16 16 16 15 15 13
14 18 18 17 17 15 15 14 11 11 13 11 12 10 8 7 4 4 5 5 2 2 2 5 6 9 9 9 12 18 11 18 18 16 15 16 15 14 14 14 14 14 14
12 18 19 19 19 15 15 17 13 12 11 11 10 11 9 9 6 5 4 4 5 4 6 5 5 10 9 8 10 10 11 14 18 17 16 16 15 16 16 14 13 13 13
14 15 19 19 19 19 16 16 15 14 15 10 9 12 12 9 8 7 6 5 3 5 4 8 7 3 7 6 9 10 11 14 19 19 19 17 17 15 16 15 13 13 13
14 16 18 19 20 21 19 17 16 16 16 14 14 15 16 14 10 9 6 6 5 4 5 2 3 5 6 7 6 8 8 10 8 19 20 18 17 16 15 13 13 14 14
14 16 17 18 20 20 20 21 19 18 17 17 17 16 17 12 13 10 8 11 9 7 6 10 5 4 6 5 4 7 7 8 8 13 18 19 17 16 16 14 14 14 14
14 16 15 17 19 21 20 20 20 18 17 18 18 18 16 15 14 10 10 9 8 6 8 5 5 1 2 3 3 3 4 4 6 9 15 17 17 17 16 15 15 15 15
13 15 16 18 19 19 20 20 20 18 17 18 18 17 17 16 18 15 12 12 10 8 7 8 3 3 2 2 2 4 4 4 5 6 8 9 14 16 16 15 15 15 16
13 14 16 18 18 17 15 20 21 21 21 19 18 19 18 19 20 17 11 12 11 10 7 8 4 3 4 3 6 4 5 4 4 4 5 5 6 6 7 13 13 16 16
14 13 17 18 18 14 21 23 23 21 21 21 19 19 19 19 18 19 19 17 17 14 12 8 9 8 13 6 4 5 4 4 3 6 6 7 7 8 8 7 15 16 17
16 16 12 14 18 19 21 22 24 21 21 22 21 19 16 13 16 15 16 18 17 19 18 14 13 14 11 10 7 6 6 5 5 3 7 5 5 8 6 6 12 13 14
15 13 15 16 16 15 17 22 21 23 19 20 20 20 19 18 15 17 16 15 15 13 14 10 14 14 12 7 13 10 8 4 3 2 4 5 3 4 2 3 8 11 11
16 16 14 15 13 14 16 18 20 20 19 18 17 19 19 19 17 20 17 17 16 14 7 10 3 3 9 10 9 6 5 5 4 3 4 2 1 2 2 2 1 5 9
15 13 12 10 12 11 9 15 15 14 17 14 15 15 17 19 18 21 20 17 17 15 9 5 4 2 6 8 13 11 8 7 4 0 5 5 4 4 1 1 1 1 4
Wind_Direction
172 158 154 160 108 106 150 146 130 125 122 120 125 121 125 118 112 101 116 135 137 142 142 143 141 141 142 140 141 141 141 137 135 132 129 127 126 122 113 112 109 104 100
175 174 167 171 143 118 149 144 132 130 128 125 126 128 133 117 115 117 127 140 145 145 146 149 149 150 149 149 150 149 145 143 142 140 138 135 133 126 124 120 117 112 104
161 166 168 166 174 134 132 115 120 121 119 123 127 132 137 127 126 127 135 136 140 141 146 155 156 157 157 157 159 156 154 152 152 149 148 147 144 139 134 128 128 122 115
157 166 172 157 158 153 131 155 138 132 122 132 130 138 153 132 134 138 141 142 140 140 147 152 164 166 170 169 169 168 165 164 163 159 159 159 156 150 148 144 142 134 127
158 146 146 123 148 163 174 163 141 143 130 129 134 134 155 139 147 146 151 158 165 152 147 161 164 165 180 182 181 180 177 177 174 171 171 170 168 165 161 156 157 149 142
151 133 137 157 147 157 154 152 150 133 142 137 126 119 127 130 132 153 163 169 185 166 162 161 157 171 182 194 193 191 189 187 186 181 182 180 179 180 176 172 174 170 162
151 154 128 154 159 166 163 153 147 142 137 130 113 93 54 88 150 177 162 179 196 188 176 172 166 174 186 201 204 202 199 195 194 193 191 190 192 190 193 188 189 190 189
171 161 163 175 176 166 164 164 158 147 112 168 147 116 141 90 245 213 182 194 203 178 187 186 177 184 189 193 207 215 210 203 199 200 199 200 202 202 202 205 204 205 204
169 174 189 191 186 168 175 176 171 169 157 183 179 138 135 200 137 181 209 191 188 192 195 183 188 189 194 198 207 223 225 213 206 204 204 207 208 209 211 214 217 220 222
170 178 186 194 185 168 178 182 179 174 163 173 188 172 92 137 174 203 226 201 180 195 194 195 191 197 197 204 211 213 223 217 211 211 210 211 213 214 216 220 224 227 232
176 189 189 186 195 171 158 170 178 183 184 173 177 162 127 124 102 137 202 192 208 200 194 197 199 197 202 202 205 218 215 217 213 213 216 217 217 219 220 222 226 229 237
183 187 188 198 188 177 158 188 185 185 192 190 189 195 168 160 178 153 147 214 212 204 191 195 199 203 202 204 209 213 213 214 213 211 213 218 221 222 226 228 230 232 236
186 189 190 195 193 193 189 202 197 188 189 193 188 196 193 188 149 140 139 162 187 192 176 209 206 204 205 204 207 209 211 209 212 212 212 214 218 222 225 229 233 236 239
191 184 190 192 197 198 192 196 207 196 190 198 195 199 206 201 169 164 162 150 123 179 231 227 205 206 205 202 206 201 208 206 209 210 211 214 213 216 223 226 232 241 242
192 194 196 191 189 194 195 196 205 201 189 190 200 211 207 211 198 196 166 166 155 179 226 231 218 209 204 194 199 197 205 203 208 205 212 216 214 214 213 214 217 227 234
192 191 193 196 194 195 194 194 199 206 193 193 200 207 213 213 203 209 190 178 204 162 214 205 214 169 192 197 186 188 198 197 204 203 211 211 216 211 220 214 207 216 223
194 192 194 198 196 198 197 196 203 202 196 198 206 212 214 211 207 202 191 194 203 167 202 261 210 182 178 189 183 194 196 205 203 205 210 209 215 208 212 216 210 213 219
196 198 196 199 200 201 196 199 201 205 198 196 206 208 213 203 214 205 195 205 212 201 188 236 196 201 196 201 178 181 200 207 207 203 210 214 211 209 213 210 214 219 218
212 205 197 202 203 204 202 200 206 206 205 205 207 209 209 203 212 202 200 199 203 202 214 196 222 154 159 151 139 179 190 209 208 207 207 213 210 211 214 211 215 220 224
213 211 207 207 206 205 208 206 203 209 209 210 209 213 212 209 211 201 200 201 199 198 204 221 197 163 155 192 145 163 210 202 207 209 201 204 206 218 215 219 219 219 226
306 212 216 214 212 208 208 209 208 205 207 209 211 213 215 212 212 203 192 204 196 198 194 210 194 158 183 177 196 177 206 161 219 185 199 204 196 204 215 223 230 222 223
319 302 220 216 212 211 207 206 205 209 209 208 208 211 212 205 208 203 198 197 196 197 200 195 214 213 221 201 163 181 146 140 238 191 179 228 183 212 204 195 212 214 215
321 313 274 215 221 216 207 202 204 212 207 209 209 210 215 212 205 206 212 208 202 204 200 197 211 214 224 206 166 172 188 188 201 157 192 239 176 230 212 206 202 205 211
319 301 296 246 214 226 204 199 203 213 218 212 209 211 214 212 202 204 206 213 216 215 216 207 212 220 219 195 198 205 203 208 60 134 152 205 153 230 170 212 186 202 212
323 307 295 264 238 226 204 211 192 214 220 216 210 210 212 214 203 192 203 211 217 223 220 217 208 213 198 196 185 141 167 146 205 234 192 151 125 86 52 17 199 206 208
329 318 316 321 243 246 210 207 209 211 220 226 217 214 207 208 193 186 203 210 218 222 195 164 185 185 192 200 194 189 177 198 150 163 201 156 156 148 344 229 276 102 110